Retour au catalogue

THOR AGENA B DEB

ActifLEO
NORAD 1948·DEBRIS·🇺🇸 United States

Lancé Nov 29, 1965 depuis Vandenberg Space Force Base

Loading…

Prochains Passages (prochaines 24 heures)

TLE

FraisSource: Space-Track

Époque: Sep 14, 2026, 04:45 UTC

1 01948U 65098F   26257.19814794  .00007171  00000-0  12805-2 0  9999
2 01948  79.8467 182.7323 0748778  29.1898 334.9002 13.61921965821284

Suivez THOR AGENA B DEB en temps réel avec AllMySat

Download on the App Store